Location: B?ogocice
(50.2413°N, 20.2361°E)
Time: 16:23:38
(UTC+00:00)

SAR-Lupe-4 - Pass Details

Date: 17 September 2024
Orbit: 476 x 483 km, 98.1° (Epoch: 03 October)

Event Time Altitude Azimuth Distance (km) Brightness Sun altitude
Rises 01:44:29 0° 22° (NNE) 2,556 8.2 -23.7°
Reaches altitude 10° 01:46:44 10° 34° (NNE) 1,669 7.2 -23.4°
Maximum altitude 01:49:57 30° 97° (E) 884 5.3 -23.0°
Enters shadow 01:51:20 23° 137° (SE) 1,074 5.3 -22.8°
